When you browse on this site, cookies collect data to enhance your experience and personalize the content and advertising you see.
Visit our Privacy Policy to learn more. By continuing to use the site, you agree to this use of cookies and data.
  • In Portugal
  • List of Countries
  • For 7 days
  • Water Temperature
  • Satellite Maps
  • Weather Map
  • Weather Widgets
  • user-avatar
    Login

    Hourly Weather Wadoly

    Today, 19 December, Wednesday

    Time Temperature Precipitation Wind Pressure Humidity
    00:00 -1°C° 0 mm 3 mps 758 mmHg 96%
    01:00 -1°C° 0 mm 3 mps 758 mmHg 96%
    02:00 -1°C° 0 mm 3 mps 758 mmHg 96%
    03:00 -1°C° 0 mm 3 mps 757 mmHg 96%
    04:00 -1°C° 0 mm 3 mps 757 mmHg 95%
    05:00 -1°C° 0 mm 3 mps 757 mmHg 94%
    06:00 -2°C° 0 mm 4 mps 757 mmHg 93%
    07:00 -2°C° 0 mm 4 mps 757 mmHg 92%
    08:00 -2°C° 0 mm 4 mps 756 mmHg 89%
    09:00 -2°C° 0 mm 5 mps 756 mmHg 86%
    10:00 -2°C° 0 mm 5 mps 756 mmHg 83%
    11:00 -2°C° 0 mm 5 mps 756 mmHg 81%
    12:00 -2°C° 0 mm 5 mps 755 mmHg 80%
    13:00 -2°C° 0 mm 5 mps 755 mmHg 78%
    14:00 -2°C° 0 mm 5 mps 754 mmHg 80%
    15:00 -4°C° 0 mm 5 mps 754 mmHg 82%
    16:00 -4°C° 0 mm 5 mps 754 mmHg 84%
    17:00 -4°C° 0 mm 5 mps 753 mmHg 83%
    18:00 -5°C° 0 mm 5 mps 753 mmHg 83%
    19:00 -5°C° 0 mm 5 mps 753 mmHg 82%
    20:00 -5°C° 0 mm 5 mps 753 mmHg 82%
    21:00 -5°C° 0 mm 5 mps 753 mmHg 81%
    22:00 -5°C° 0 mm 5 mps 752 mmHg 81%
    23:00 -5°C° 0 mm 5 mps 752 mmHg 81%

    Tomorrow, 20 December, Thursday

    Time Temperature Precipitation Wind Pressure Humidity
    00:00 -4°C° 0 mm 4 mps 752 mmHg 81%
    01:00 -4°C° 0 mm 4 mps 752 mmHg 81%
    02:00 -4°C° 0.1 mm 4 mps 752 mmHg 83%
    03:00 -4°C° 0.1 mm 4 mps 752 mmHg 84%
    04:00 -4°C° 0.1 mm 4 mps 752 mmHg 85%
    05:00 -4°C° 0.3 mm 4 mps 752 mmHg 87%
    06:00 -4°C° 0.3 mm 4 mps 752 mmHg 88%
    07:00 -4°C° 0.3 mm 4 mps 752 mmHg 89%
    08:00 -3°C° 0.2 mm 4 mps 751 mmHg 90%
    09:00 -3°C° 0.2 mm 4 mps 751 mmHg 90%
    10:00 -3°C° 0.2 mm 4 mps 751 mmHg 90%
    11:00 -2°C° 0.3 mm 3 mps 751 mmHg 90%
    12:00 -2°C° 0.3 mm 3 mps 751 mmHg 89%
    13:00 -1°C° 0.3 mm 3 mps 751 mmHg 89%
    14:00 -1°C° 0.2 mm 3 mps 751 mmHg 89%
    15:00 -1°C° 0.2 mm 3 mps 751 mmHg 89%
    16:00 -2°C° 0.2 mm 3 mps 750 mmHg 89%
    17:00 -2°C° 0.1 mm 3 mps 750 mmHg 90%
    18:00 -2°C° 0.1 mm 3 mps 750 mmHg 90%
    19:00 -2°C° 0.1 mm 3 mps 750 mmHg 91%
    20:00 -2°C° 0.2 mm 3 mps 750 mmHg 92%
    21:00 -2°C° 0.2 mm 3 mps 750 mmHg 93%
    22:00 -2°C° 0.2 mm 3 mps 750 mmHg 94%
    23:00 -1°C° 0.3 mm 3 mps 750 mmHg 95%

    Day after tomorrow, 21 December, Friday

    Time Temperature Precipitation Wind Pressure Humidity
    00:00 -1°C° 0.3 mm 3 mps 749 mmHg 96%
    01:00 -1°C° 0.3 mm 3 mps 749 mmHg 96%
    02:00 -1°C° 0 mm 3 mps 749 mmHg 96%
    03:00 0°C° 0 mm 3 mps 749 mmHg 96%
    04:00 0°C° 0 mm 3 mps 748 mmHg 97%
    05:00 0°C° 0 mm 3 mps 748 mmHg 97%
    06:00 0°C° 0 mm 3 mps 748 mmHg 97%
    07:00 0°C° 0 mm 3 mps 748 mmHg 97%
    08:00 0°C° 0 mm 3 mps 748 mmHg 97%
    09:00 0°C° 0 mm 3 mps 747 mmHg 97%
    10:00 0°C° 0 mm 3 mps 747 mmHg 97%
    11:00 0°C° 0 mm 3 mps 747 mmHg 97%
    12:00 0°C° 0 mm 3 mps 746 mmHg 97%
    13:00 -1°C° 0 mm 4 mps 746 mmHg 97%
    14:00 -1°C° 0 mm 4 mps 745 mmHg 96%
    15:00 -1°C° 0 mm 4 mps 744 mmHg 96%
    16:00 -1°C° 0 mm 4 mps 744 mmHg 96%
    17:00 -1°C° 0.1 mm 4 mps 743 mmHg 95%
    18:00 -1°C° 0.1 mm 4 mps 742 mmHg 95%
    19:00 -1°C° 0.1 mm 5 mps 741 mmHg 94%
    20:00 -1°C° 0.5 mm 5 mps 740 mmHg 94%
    21:00 -1°C° 0.5 mm 5 mps 739 mmHg 94%
    22:00 -1°C° 0.5 mm 5 mps 738 mmHg 94%
    23:00 -1°C° 0.9 mm 5 mps 737 mmHg 95%

    22 December, Saturday

    Time Temperature Precipitation Wind Pressure Humidity
    00:00 0°C° 0.9 mm 4 mps 737 mmHg 95%
    01:00 0°C° 0.9 mm 4 mps 736 mmHg 96%
    02:00 0°C° 0.5 mm 4 mps 736 mmHg 95%
    03:00 +1°C° 0.5 mm 5 mps 736 mmHg 93%
    04:00 +2°C° 0.5 mm 5 mps 736 mmHg 92%
    05:00 +2°C° 0.3 mm 5 mps 736 mmHg 91%
    06:00 +2°C° 0.3 mm 6 mps 736 mmHg 91%
    07:00 +2°C° 0.3 mm 6 mps 736 mmHg 90%
    08:00 +2°C° 0.1 mm 6 mps 736 mmHg 90%
    09:00 +2°C° 0.1 mm 6 mps 736 mmHg 90%
    10:00 +3°C° 0.1 mm 7 mps 736 mmHg 90%
    11:00 +3°C° 0.1 mm 6 mps 736 mmHg 91%
    12:00 +3°C° 0.1 mm 6 mps 736 mmHg 91%
    13:00 +3°C° 0.1 mm 6 mps 736 mmHg 91%
    14:00 +2°C° 0.1 mm 6 mps 736 mmHg 91%
    15:00 +2°C° 0.1 mm 6 mps 737 mmHg 92%
    16:00 +2°C° 0.1 mm 5 mps 737 mmHg 92%
    17:00 +1°C° 0 mm 5 mps 738 mmHg 92%
    18:00 +1°C° 0 mm 5 mps 738 mmHg 92%
    19:00 +1°C° 0 mm 4 mps 739 mmHg 92%
    20:00 0°C° 0 mm 4 mps 740 mmHg 92%
    21:00 0°C° 0 mm 4 mps 740 mmHg 93%
    22:00 0°C° 0 mm 3 mps 741 mmHg 93%
    23:00 0°C° 0 mm 3 mps 741 mmHg 94%

    23 December, Sunday

    Time Temperature Precipitation Wind Pressure Humidity
    00:00 0°C° 0 mm 3 mps 742 mmHg 94%
    01:00 +1°C° 0 mm 2 mps 742 mmHg 94%
    02:00 -1°C° 0 mm 2 mps 743 mmHg 94%
    03:00 -1°C° 0 mm 2 mps 743 mmHg 94%
    04:00 -1°C° 0 mm 2 mps 743 mmHg 94%
    05:00 -1°C° 0.2 mm 2 mps 744 mmHg 94%
    06:00 +1°C° 0.2 mm 2 mps 744 mmHg 94%
    07:00 +1°C° 0.2 mm 2 mps 744 mmHg 93%
    08:00 +1°C° 0.4 mm 2 mps 744 mmHg 93%
    09:00 +1°C° 0.4 mm 3 mps 744 mmHg 93%
    10:00 +2°C° 0.4 mm 3 mps 745 mmHg 93%
    11:00 +1°C° 0.1 mm 4 mps 744 mmHg 92%
    12:00 +3°C° 0.1 mm 4 mps 744 mmHg 91%
    13:00 +2°C° 0.1 mm 5 mps 744 mmHg 90%
    14:00 +2°C° 0.3 mm 5 mps 744 mmHg 89%
    15:00 +2°C° 0.3 mm 5 mps 744 mmHg 89%
    16:00 +2°C° 0.3 mm 5 mps 744 mmHg 88%
    17:00 +1°C° 0.2 mm 6 mps 745 mmHg 88%
    18:00 +1°C° 0.2 mm 6 mps 745 mmHg 88%
    19:00 0°C° 0.2 mm 7 mps 746 mmHg 87%
    20:00 -1°C° 0.1 mm 6 mps 747 mmHg 85%
    21:00 -1°C° 0.1 mm 6 mps 747 mmHg 82%
    22:00 -2°C° 0.1 mm 6 mps 748 mmHg 79%
    23:00 -1°C° 0 mm 5 mps 749 mmHg 80%

    24 December, Monday

    Time Temperature Precipitation Wind Pressure Humidity
    00:00 -1°C° 0 mm 4 mps 750 mmHg 80%
    01:00 -2°C° 0 mm 4 mps 751 mmHg 81%
    02:00 -1°C° 0 mm 3 mps 751 mmHg 82%
    03:00 -1°C° 0 mm 3 mps 752 mmHg 84%
    04:00 -1°C° 0 mm 3 mps 752 mmHg 85%
    05:00 -1°C° 0 mm 3 mps 752 mmHg 86%
    06:00 -1°C° 0 mm 2 mps 753 mmHg 86%
    07:00 -1°C° 0 mm 2 mps 753 mmHg 86%
    08:00 -1°C° 0 mm 2 mps 753 mmHg 87%
    09:00 0°C° 0 mm 3 mps 754 mmHg 87%
    10:00 0°C° 0 mm 3 mps 754 mmHg 88%
    11:00 0°C° 0 mm 3 mps 754 mmHg 86%
    12:00 +1°C° 0 mm 3 mps 754 mmHg 85%
    13:00 +1°C° 0 mm 3 mps 754 mmHg 84%
    14:00 +1°C° 0 mm 3 mps 754 mmHg 87%
    15:00 +1°C° 0 mm 2 mps 755 mmHg 89%
    16:00 +1°C° 0 mm 2 mps 755 mmHg 92%
    17:00 +1°C° 0 mm 2 mps 755 mmHg 92%
    18:00 +1°C° 0 mm 2 mps 755 mmHg 92%
    19:00 +1°C° 0 mm 2 mps 756 mmHg 92%
    20:00 -1°C° 0 mm 2 mps 756 mmHg 92%
    21:00 -1°C° 0 mm 2 mps 756 mmHg 92%
    22:00 -2°C° 0 mm 2 mps 756 mmHg 91%
    23:00 -2°C° 0 mm 2 mps 756 mmHg 91%
    Show more